• In Moldova, Republic
  • List of Countries
  • For 7 days
  • Water Temperature
  • Satellite Maps
  • Weather Map
  • Weather Widgets
  • user-avatar
    Login

    Hourly Weather Klagenfurt

    Today, 24 February, Saturday

    Time Temperature Precipitation Wind Pressure Humidity
    00:00 -5°C° 0.1 mm 2 mps 686 mmHg 92%
    01:00 -6°C° 0 mm 3 mps 686 mmHg 92%
    02:00 -5°C° 0.1 mm 2 mps 686 mmHg 92%
    03:00 -5°C° 0.1 mm 2 mps 686 mmHg 92%
    04:00 -3°C° 0.1 mm 1 mps 686 mmHg 92%
    05:00 -5°C° 0 mm 2 mps 686 mmHg 92%
    06:00 -5°C° 0 mm 2 mps 686 mmHg 92%
    07:00 -4°C° 0 mm 1 mps 686 mmHg 92%
    08:00 -3°C° 0 mm 1 mps 686 mmHg 90%
    09:00 -3°C° 0 mm 2 mps 686 mmHg 87%
    10:00 -2°C° 0 mm 2 mps 687 mmHg 85%
    11:00 -1°C° 0 mm 2 mps 687 mmHg 85%
    12:00 -1°C° 0 mm 2 mps 687 mmHg 84%
    13:00 -1°C° 0 mm 3 mps 687 mmHg 83%
    14:00 -1°C° 0 mm 3 mps 687 mmHg 83%
    15:00 -2°C° 0 mm 3 mps 686 mmHg 83%
    16:00 -2°C° 0 mm 2 mps 686 mmHg 83%
    17:00 -3°C° 0 mm 2 mps 687 mmHg 85%
    18:00 -5°C° 0 mm 2 mps 687 mmHg 87%
    19:00 -6°C° 0 mm 2 mps 687 mmHg 90%
    20:00 -7°C° 0 mm 2 mps 687 mmHg 90%
    21:00 -8°C° 0 mm 2 mps 687 mmHg 90%
    22:00 -8°C° 0 mm 2 mps 688 mmHg 90%
    23:00 -9°C° 0 mm 2 mps 688 mmHg 90%

    Tomorrow, 25 February, Sunday

    Time Temperature Precipitation Wind Pressure Humidity
    00:00 -9°C° 0 mm 2 mps 688 mmHg 90%
    01:00 -10°C° 0 mm 2 mps 688 mmHg 90%
    02:00 -12°C° 0 mm 2 mps 688 mmHg 89%
    03:00 -12°C° 0 mm 2 mps 688 mmHg 88%
    04:00 -13°C° 0 mm 2 mps 688 mmHg 88%
    05:00 -13°C° 0 mm 2 mps 688 mmHg 87%
    06:00 -13°C° 0 mm 2 mps 688 mmHg 86%
    07:00 -14°C° 0 mm 2 mps 688 mmHg 86%
    08:00 -14°C° 0 mm 3 mps 688 mmHg 80%
    09:00 -13°C° 0 mm 3 mps 688 mmHg 75%
    10:00 -10°C° 0 mm 3 mps 688 mmHg 69%
    11:00 -10°C° 0 mm 3 mps 688 mmHg 67%
    12:00 -9°C° 0 mm 3 mps 688 mmHg 65%
    13:00 -9°C° 0 mm 4 mps 688 mmHg 63%
    14:00 -9°C° 0 mm 4 mps 687 mmHg 64%
    15:00 -10°C° 0 mm 4 mps 687 mmHg 66%
    16:00 -10°C° 0 mm 4 mps 687 mmHg 67%
    17:00 -10°C° 0 mm 3 mps 687 mmHg 72%
    18:00 -12°C° 0 mm 3 mps 687 mmHg 78%
    19:00 -14°C° 0 mm 3 mps 687 mmHg 83%
    20:00 -14°C° 0 mm 3 mps 687 mmHg 84%
    21:00 -14°C° 0 mm 3 mps 687 mmHg 84%
    22:00 -14°C° 0 mm 2 mps 687 mmHg 85%
    23:00 -14°C° 0 mm 2 mps 687 mmHg 85%

    Day after tomorrow, 26 February, Monday

    Time Temperature Precipitation Wind Pressure Humidity
    00:00 -15°C° 0 mm 2 mps 687 mmHg 85%
    01:00 -15°C° 0 mm 2 mps 686 mmHg 85%
    02:00 -15°C° 0 mm 2 mps 686 mmHg 85%
    03:00 -16°C° 0 mm 2 mps 686 mmHg 85%
    04:00 -16°C° 0 mm 2 mps 686 mmHg 85%
    05:00 -16°C° 0 mm 2 mps 686 mmHg 85%
    06:00 -16°C° 0 mm 2 mps 685 mmHg 84%
    07:00 -17°C° 0 mm 2 mps 685 mmHg 83%
    08:00 -16°C° 0 mm 3 mps 686 mmHg 78%
    09:00 -15°C° 0 mm 3 mps 686 mmHg 72%
    10:00 -14°C° 0 mm 4 mps 686 mmHg 66%
    11:00 -12°C° 0 mm 4 mps 686 mmHg 65%
    12:00 -11°C° 0 mm 4 mps 685 mmHg 63%
    13:00 -11°C° 0 mm 4 mps 685 mmHg 62%
    14:00 -11°C° 0.1 mm 4 mps 685 mmHg 64%
    15:00 -11°C° 0.1 mm 4 mps 685 mmHg 66%
    16:00 -10°C° 0.1 mm 3 mps 684 mmHg 69%
    17:00 -12°C° 0.1 mm 3 mps 685 mmHg 73%
    18:00 -13°C° 0.1 mm 3 mps 685 mmHg 77%
    19:00 -12°C° 0.1 mm 2 mps 685 mmHg 81%
    20:00 -13°C° 0.1 mm 2 mps 685 mmHg 81%
    21:00 -13°C° 0.1 mm 2 mps 685 mmHg 81%
    22:00 -13°C° 0.1 mm 2 mps 685 mmHg 81%
    23:00 -13°C° 0 mm 2 mps 685 mmHg 81%

    27 February, Tuesday

    Time Temperature Precipitation Wind Pressure Humidity
    00:00 -14°C° 0 mm 2 mps 685 mmHg 81%
    01:00 -14°C° 0 mm 2 mps 684 mmHg 81%
    02:00 -14°C° 0 mm 2 mps 684 mmHg 81%
    03:00 -13°C° 0 mm 1 mps 684 mmHg 81%
    04:00 -13°C° 0 mm 1 mps 684 mmHg 82%
    05:00 -13°C° 0 mm 1 mps 684 mmHg 82%
    06:00 -14°C° 0 mm 1 mps 684 mmHg 82%
    07:00 -14°C° 0 mm 1 mps 684 mmHg 83%
    08:00 -13°C° 0 mm 1 mps 684 mmHg 77%
    09:00 -11°C° 0 mm 1 mps 684 mmHg 71%
    10:00 -12°C° 0 mm 2 mps 684 mmHg 65%
    11:00 -8°C° 0 mm 1 mps 684 mmHg 63%
    12:00 -7°C° 0 mm 1 mps 684 mmHg 61%
    13:00 -6°C° 0 mm 1 mps 684 mmHg 59%
    14:00 -7°C° 0 mm 1 mps 684 mmHg 62%
    15:00 -7°C° 0 mm 1 mps 684 mmHg 64%
    16:00 -7°C° 0 mm 1 mps 684 mmHg 66%
    17:00 -8°C° 0.1 mm 1 mps 684 mmHg 73%
    18:00 -9°C° 0.1 mm 1 mps 684 mmHg 79%
    19:00 -11°C° 0.1 mm 1 mps 684 mmHg 86%
    20:00 -11°C° 0 mm 1 mps 685 mmHg 87%
    21:00 -12°C° 0 mm 1 mps 685 mmHg 88%
    22:00 -12°C° 0 mm 1 mps 685 mmHg 90%
    23:00 -13°C° 0 mm 1 mps 685 mmHg 89%

    28 February, Wednesday

    Time Temperature Precipitation Wind Pressure Humidity
    00:00 -13°C° 0 mm 1 mps 685 mmHg 89%
    01:00 -14°C° 0 mm 1 mps 685 mmHg 89%
    02:00 -14°C° 0 mm 1 mps 685 mmHg 88%
    03:00 -15°C° 0 mm 1 mps 685 mmHg 87%
    04:00 -15°C° 0 mm 1 mps 685 mmHg 86%
    05:00 -15°C° 0 mm 1 mps 685 mmHg 86%
    06:00 -15°C° 0 mm 1 mps 686 mmHg 85%
    07:00 -16°C° 0 mm 1 mps 686 mmHg 84%
    08:00 -13°C° 0 mm 1 mps 686 mmHg 78%
    09:00 -11°C° 0 mm 1 mps 687 mmHg 72%
    10:00 -8°C° 0 mm 1 mps 688 mmHg 66%
    11:00 -7°C° 0 mm 1 mps 688 mmHg 64%
    12:00 -6°C° 0 mm 1 mps 688 mmHg 62%
    13:00 -3°C° 0 mm 1 mps 688 mmHg 60%
    14:00 -4°C° 0 mm 1 mps 688 mmHg 62%
    15:00 -4°C° 0 mm 1 mps 688 mmHg 64%
    16:00 -6°C° 0 mm 1 mps 688 mmHg 66%
    17:00 -7°C° 0 mm 1 mps 688 mmHg 73%
    18:00 -9°C° 0 mm 1 mps 688 mmHg 79%
    19:00 -11°C° 0 mm 1 mps 688 mmHg 86%
    20:00 -11°C° 0 mm 1 mps 688 mmHg 87%
    21:00 -11°C° 0 mm 1 mps 688 mmHg 88%
    22:00 -12°C° 0 mm 1 mps 688 mmHg 89%
    23:00 -12°C° 0 mm 1 mps 688 mmHg 89%

    1 March, Thursday

    Time Temperature Precipitation Wind Pressure Humidity
    00:00 -12°C° 0 mm 1 mps 688 mmHg 88%
    01:00 -12°C° 0 mm 1 mps 688 mmHg 88%
    02:00 -12°C° 0 mm 1 mps 687 mmHg 87%
    03:00 -13°C° 0 mm 1 mps 687 mmHg 87%
    04:00 -13°C° 0 mm 1 mps 686 mmHg 86%
    05:00 -12°C° 0 mm 1 mps 686 mmHg 85%
    06:00 -12°C° 0 mm 1 mps 686 mmHg 84%
    07:00 -12°C° 0 mm 1 mps 685 mmHg 83%
    08:00 -10°C° 0 mm 1 mps 685 mmHg 79%
    09:00 -7°C° 0 mm 1 mps 685 mmHg 76%
    10:00 -4°C° 0 mm 1 mps 685 mmHg 73%
    11:00 -3°C° 0 mm 1 mps 685 mmHg 74%
    12:00 -2°C° 0 mm 1 mps 684 mmHg 76%
    13:00 -2°C° 0 mm 2 mps 683 mmHg 77%
    14:00 -2°C° 0.1 mm 2 mps 683 mmHg 80%
    15:00 -2°C° 0.1 mm 2 mps 682 mmHg 82%
    16:00 -2°C° 0.1 mm 2 mps 682 mmHg 85%
    17:00 -1°C° 0.2 mm 1 mps 682 mmHg 88%
    18:00 -1°C° 0.2 mm 1 mps 681 mmHg 91%
    19:00 -2°C° 0.2 mm 1 mps 681 mmHg 94%
    20:00 -2°C° 0.4 mm 1 mps 681 mmHg 94%
    21:00 -2°C° 0.4 mm 1 mps 680 mmHg 94%
    22:00 -1°C° 0.4 mm 1 mps 680 mmHg 94%
    23:00 -1°C° 0.5 mm 1 mps 680 mmHg 94%
    Show more